Temp
64 64 63 63 63 64 64 64 64 63 64 64 64 64 64 64 63 69 75 87 86 82 82 90 91 90 91 87 91 84 63 58 63 71 69 81 79 84 88 85 86 85 80 80 84
63 63 63 63 63 63 63 63 63 63 63 63 63 64 64 64 70 76 87 85 83 81 89 88 86 90 84 85 88 77 63 66 73 79 75 80 79 78 80 79 77 80 81 84 83
63 63 62 62 63 63 63 63 63 63 62 62 63 64 64 64 69 83 87 85 82 82 92 92 92 88 82 86 83 76 66 75 80 83 83 77 79 83 75 69 76 72 79 82 81
62 62 62 62 62 62 62 62 62 62 62 62 63 64 64 68 68 86 83 83 82 90 92 90 88 81 78 79 85 71 76 81 81 84 81 79 79 74 74 72 78 80 84 82 80
62 62 61 62 62 62 62 62 61 61 62 62 63 64 65 69 78 88 83 84 86 90 89 87 84 83 77 81 84 77 79 75 72 84 82 81 75 73 73 76 79 80 84 82 82
61 61 61 61 61 61 61 61 60 61 62 63 64 64 65 68 95 90 90 88 92 89 88 89 87 89 83 82 77 82 79 76 81 80 82 75 73 74 71 78 80 82 82 85 83
61 61 61 61 61 61 60 60 60 61 62 63 64 71 74 77 98 92 93 88 90 91 87 94 94 86 85 79 88 86 70 69 73 79 79 80 66 72 76 75 78 81 83 85 84
61 61 60 60 60 60 59 59 60 62 62 64 65 69 66 94 96 95 95 93 95 94 92 94 94 87 82 86 86 79 68 57 66 76 80 77 61 74 77 74 74 79 85 86 85
60 60 60 60 59 59 58 59 61 65 65 66 61 62 70 92 88 95 95 94 93 92 92 102 89 79 82 74 70 72 59 59 70 77 79 75 65 77 79 78 76 78 81 84 82
60 59 59 59 59 58 58 58 66 63 65 75 80 68 77 84 90 96 96 98 91 90 88 84 77 70 71 68 57 65 68 72 67 76 77 72 70 76 78 77 75 75 77 81 81
60 59 59 58 58 57 59 68 65 65 72 72 75 78 87 90 93 93 96 93 89 82 71 79 67 62 70 76 79 80 77 73 75 80 75 72 72 73 78 72 73 71 73 78 78
59 59 58 58 57 57 55 68 79 84 72 79 86 85 90 92 86 90 94 83 80 71 77 71 64 77 82 83 80 76 73 71 80 84 76 73 72 76 75 70 69 72 73 78 79
59 58 58 57 57 55 69 77 88 89 71 81 85 82 85 90 85 85 89 84 78 73 75 68 75 86 82 79 77 74 68 73 73 79 79 73 66 65 64 67 72 72 77 77 79
58 58 57 56 56 76 77 84 86 89 62 74 79 86 88 90 82 97 94 85 79 73 76 74 83 83 80 77 76 62 80 82 79 69 57 71 52 60 62 64 66 72 79 78 81
58 57 56 56 55 71 86 92 90 83 49 84 83 97 91 83 84 87 95 87 76 77 75 72 77 77 75 78 82 73 83 79 77 67 62 66 58 54 62 65 67 71 75 80 85
57 56 55 58 58 71 84 87 82 60 55 79 86 82 81 82 85 90 87 88 88 80 79 77 87 83 79 84 83 85 78 74 70 63 52 62 64 54 58 64 66 69 73 78 79
56 54 54 68 75 86 88 80 58 54 81 78 76 82 79 76 80 83 79 76 70 58 61 74 78 84 86 74 79 75 62 51 49 49 55 61 61 62 71 75 71 67 78 78 79
54 53 58 71 83 86 82 66 53 73 77 85 83 82 77 79 78 80 76 70 77 73 68 63 62 76 84 77 69 68 62 55 46 48 56 61 55 62 78 82 78 74 72 75 79
53 66 72 80 76 82 70 57 62 71 82 79 79 74 72 81 80 77 74 73 77 78 66 63 66 84 86 84 78 67 59 69 58 58 56 62 68 79 80 80 82 81 77 82 85
63 77 80 91 89 79 65 57 69 80 83 80 68 74 68 74 75 73 73 81 80 85 80 71 61 77 83 84 80 72 73 57 57 47 47 57 64 62 69 74 73 75 78 72 86
69 72 87 93 87 71 60 67 77 86 85 75 72 70 71 71 73 72 74 82 85 84 83 77 69 70 76 69 69 66 62 62 61 57 49 49 56 69 71 73 67 72 75 75 73
73 69 91 92 68 70 67 75 73 83 84 80 77 75 72 73 70 71 72 76 87 84 74 72 68 62 68 79 83 78 69 65 53 54 56 55 57 77 76 73 71 70 72 78 82
65 75 91 88 64 68 77 80 83 80 78 77 75 77 76 70 62 71 74 83 85 80 69 73 62 53 60 67 75 69 73 67 66 62 56 52 57 75 75 70 74 70 69 76 80
67 68 76 78 78 73 69 72 73 83 81 79 75 75 71 67 71 66 72 81 82 79 73 73 62 58 53 60 66 66 70 72 67 58 57 62 64 70 75 69 71 71 75 81 73
71 70 70 64 69 72 71 71 71 71 77 76 70 72 68 59 64 65 70 72 76 75 73 70 56 60 64 70 72 71 71 74 72 66 55 66 65 72 74 75 70 75 75 77 79
64 64 69 66 71 70 67 67 70 71 70 68 66 72 69 60 63 59 64 64 62 69 66 64 56 59 59 69 70 66 72 74 74 75 70 73 71 76 82 79 78 79 80 80 78
71 71 65 63 68 69 67 69 70 71 72 75 71 67 65 68 72 71 70 70 69 64 63 61 54 54 50 62 62 57 66 71 72 76 74 68 71 76 74 74 72 71 73 73 79
MSLP
1016.86 1016.56 1016.30 1016.06 1015.78 1015.46 1015.18 1014.89 1014.59 1014.31 1014.06 1013.79 1013.52 1013.30 1013.05 1012.74 1012.11 1011.88 1010.42 1007.88 1007.73 1007.65 1007.97 1007.64 1007.29 1006.40 1005.97 1005.71 1005.40 1006.85 1008.92 1010.17 1009.87 1008.29 1008.17 1007.69 1007.61 1007.61 1007.38 1007.25 1007.29 1007.76 1009.13 1010.39 1010.89
1016.85 1016.56 1016.26 1015.99 1015.70 1015.42 1015.09 1014.82 1014.53 1014.23 1013.99 1013.72 1013.49 1013.31 1013.09 1012.81 1012.09 1010.30 1007.60 1007.26 1007.13 1007.40 1007.76 1007.40 1006.81 1006.12 1005.99 1005.19 1005.14 1006.51 1009.12 1008.86 1008.86 1007.55 1007.40 1007.52 1007.88 1007.84 1008.19 1008.28 1009.12 1009.40 1010.07 1010.48 1011.00
1016.86 1016.53 1016.24 1015.92 1015.57 1015.23 1014.96 1014.64 1014.37 1014.11 1013.87 1013.61 1013.38 1013.21 1013.02 1012.82 1011.66 1007.74 1005.82 1006.71 1007.04 1007.27 1007.24 1006.93 1006.36 1005.80 1005.40 1004.87 1005.41 1006.96 1007.94 1007.93 1007.36 1007.05 1006.93 1007.55 1007.98 1008.39 1009.11 1009.74 1009.96 1010.74 1009.97 1010.38 1010.64
1016.82 1016.49 1016.17 1015.83 1015.47 1015.09 1014.76 1014.49 1014.19 1013.92 1013.73 1013.56 1013.33 1013.14 1012.90 1012.52 1010.01 1006.60 1006.10 1006.44 1007.00 1007.18 1007.10 1006.52 1006.05 1005.68 1005.28 1005.13 1005.29 1006.52 1007.19 1008.01 1007.68 1007.46 1007.25 1007.58 1008.48 1009.42 1009.63 1009.93 1010.02 1010.04 1010.21 1009.80 1010.48
1016.79 1016.43 1016.10 1015.73 1015.30 1014.90 1014.58 1014.26 1014.01 1013.74 1013.52 1013.37 1013.19 1013.05 1012.78 1011.51 1008.04 1006.25 1006.38 1006.62 1007.18 1007.24 1006.94 1006.45 1006.02 1005.47 1005.14 1004.75 1005.31 1005.99 1007.27 1008.33 1008.97 1007.86 1007.21 1007.85 1008.93 1009.78 1010.10 1010.07 1009.53 1009.17 1009.85 1009.55 1009.88
1016.72 1016.28 1015.89 1015.53 1015.12 1014.66 1014.30 1014.02 1013.67 1013.47 1013.31 1013.17 1013.08 1013.06 1012.47 1009.85 1005.45 1005.57 1006.16 1006.72 1006.61 1006.82 1006.63 1006.01 1005.45 1004.81 1004.67 1004.77 1004.97 1005.82 1007.14 1008.49 1007.99 1007.81 1006.97 1007.81 1009.02 1009.38 1009.93 1009.24 1009.42 1008.97 1009.06 1008.94 1009.06
1016.62 1016.18 1015.75 1015.29 1014.87 1014.46 1014.04 1013.66 1013.31 1013.05 1012.95 1012.90 1012.89 1012.61 1011.06 1007.44 1004.96 1005.49 1005.65 1005.96 1006.08 1006.13 1006.24 1005.26 1005.05 1005.03 1004.72 1004.92 1004.74 1005.35 1007.64 1008.75 1008.41 1007.49 1006.75 1007.48 1008.97 1008.83 1008.87 1009.28 1009.11 1008.68 1008.16 1008.63 1008.76
1016.50 1016.05 1015.61 1015.18 1014.70 1014.20 1013.78 1013.44 1013.00 1012.64 1012.57 1012.59 1012.68 1012.13 1009.60 1005.76 1005.05 1005.70 1005.44 1005.35 1005.51 1005.59 1005.51 1004.96 1004.75 1004.85 1004.97 1004.87 1004.74 1005.38 1007.64 1009.44 1007.50 1007.92 1006.94 1007.27 1007.77 1008.11 1008.29 1008.93 1008.96 1008.72 1008.05 1008.07 1008.57
1016.31 1015.88 1015.43 1014.97 1014.50 1014.03 1013.46 1012.96 1012.51 1012.22 1012.24 1012.33 1012.37 1011.50 1007.90 1004.32 1004.94 1004.50 1004.56 1004.74 1005.01 1005.27 1005.18 1004.81 1004.76 1005.42 1005.41 1005.48 1005.43 1005.41 1006.56 1007.32 1006.74 1006.58 1006.76 1006.99 1006.87 1006.94 1007.58 1008.14 1008.58 1008.29 1008.24 1008.26 1008.41
1016.10 1015.61 1015.17 1014.77 1014.32 1013.85 1013.10 1012.57 1011.94 1011.98 1011.93 1011.73 1010.87 1010.37 1006.84 1004.08 1003.77 1003.86 1004.02 1004.23 1004.57 1004.93 1005.20 1005.04 1005.29 1005.73 1005.63 1005.58 1005.42 1004.66 1005.11 1005.28 1005.31 1005.53 1006.16 1006.27 1006.26 1006.49 1007.25 1007.97 1008.40 1008.54 1008.78 1008.45 1008.57
1015.89 1015.42 1014.93 1014.47 1014.16 1013.93 1012.98 1011.98 1012.10 1011.38 1010.61 1008.84 1007.63 1006.43 1004.41 1003.52 1003.22 1003.57 1003.86 1004.19 1004.32 1004.81 1005.34 1005.25 1005.77 1005.66 1005.07 1004.54 1004.05 1003.58 1003.41 1003.62 1003.83 1004.23 1004.65 1005.11 1005.54 1005.96 1007.25 1008.99 1009.06 1008.69 1008.88 1008.80 1008.95
1015.59 1015.09 1014.68 1014.23 1013.95 1013.84 1013.85 1011.83 1008.56 1007.55 1007.21 1006.69 1005.71 1005.22 1003.91 1002.99 1002.93 1003.08 1003.51 1004.24 1004.56 1004.96 1005.17 1005.43 1005.24 1004.55 1004.05 1003.48 1003.13 1002.84 1002.84 1002.92 1002.66 1002.53 1003.54 1004.19 1004.96 1005.78 1007.12 1008.39 1009.27 1009.37 1009.06 1008.64 1008.75
1015.27 1014.73 1014.25 1013.91 1013.51 1013.38 1011.77 1009.47 1007.48 1007.01 1006.61 1004.27 1003.48 1003.80 1003.40 1002.69 1002.35 1002.47 1003.16 1003.77 1004.39 1004.96 1005.02 1004.93 1004.17 1003.44 1003.30 1002.92 1002.70 1002.57 1002.55 1002.37 1002.24 1002.21 1002.66 1003.89 1005.57 1006.91 1008.29 1008.12 1006.78 1008.20 1008.47 1008.39 1008.50
1015.01 1014.43 1014.06 1013.52 1013.38 1010.79 1009.52 1007.11 1007.03 1006.89 1006.45 1002.93 1001.85 1001.77 1002.49 1002.39 1001.93 1001.69 1002.12 1003.29 1004.06 1004.40 1004.48 1004.12 1003.20 1002.75 1002.30 1002.18 1002.13 1002.25 1001.87 1001.88 1002.10 1002.70 1003.53 1004.09 1006.19 1007.57 1008.30 1008.25 1008.17 1007.75 1007.52 1007.23 1007.37
1014.70 1014.15 1013.87 1013.81 1012.98 1010.59 1007.55 1006.36 1006.21 1006.38 1005.36 1000.60 1000.49 999.69 1000.74 1001.71 1000.83 1001.14 1001.54 1002.51 1003.36 1003.83 1004.07 1003.43 1002.85 1002.24 1001.89 1001.64 1001.65 1001.88 1001.74 1002.11 1002.54 1003.17 1003.99 1004.32 1006.02 1007.75 1008.28 1008.27 1007.86 1006.82 1006.33 1006.21 1006.09
1014.22 1013.81 1013.50 1013.01 1012.61 1009.10 1007.37 1006.85 1006.52 1006.49 1003.38 1000.39 1000.13 1000.17 1000.79 1001.16 1001.26 1001.16 1001.54 1002.02 1002.58 1003.34 1003.34 1002.97 1002.26 1001.78 1001.17 1001.00 1000.97 1001.32 1001.76 1002.41 1002.85 1003.65 1004.64 1004.88 1005.49 1006.76 1007.01 1007.05 1006.61 1005.79 1005.87 1005.43 1005.52
1013.44 1013.31 1013.40 1011.82 1009.52 1007.60 1007.29 1007.19 1006.87 1005.16 1001.13 1000.17 1000.19 1000.18 1000.64 1001.01 1001.32 1001.36 1001.68 1002.16 1002.78 1003.27 1003.58 1002.86 1001.96 1001.05 1000.83 1000.96 1000.92 1001.58 1002.67 1003.48 1004.39 1004.67 1004.64 1004.19 1004.71 1004.18 1003.38 1003.50 1004.26 1004.55 1002.91 1003.61 1005.13
1012.53 1012.42 1011.25 1010.23 1008.34 1007.93 1007.46 1007.45 1006.29 1003.22 1001.65 1000.75 999.89 999.85 1000.37 1000.44 1000.79 1001.06 1001.44 1001.98 1002.19 1002.67 1002.99 1002.69 1001.62 1000.51 1000.05 1000.29 1000.76 1001.65 1002.77 1003.77 1004.46 1004.89 1004.42 1003.82 1003.51 1002.13 1001.32 1001.01 1002.11 1002.80 1002.75 1003.45 1004.21
1011.50 1010.75 1010.14 1008.21 1008.53 1008.27 1008.10 1007.30 1004.85 1003.02 1001.95 1001.53 1001.01 1000.66 1000.43 1000.21 1000.14 1000.70 1000.96 1001.14 1001.20 1001.41 1002.08 1001.89 1001.07 999.77 999.19 999.23 1000.28 1001.26 1002.22 1002.83 1003.94 1004.29 1004.25 1003.16 1001.40 1001.16 1000.91 1001.49 1001.06 1001.45 1002.36 1001.96 1002.42
1011.48 1009.77 1007.89 1006.62 1007.21 1007.68 1007.93 1006.76 1004.88 1003.18 1002.24 1002.07 1002.36 1002.02 1001.65 1001.06 1000.86 1000.39 1000.29 1000.08 1000.03 1000.09 1000.06 1000.63 1000.81 1000.02 999.10 998.96 999.59 1000.32 1001.26 1002.51 1003.25 1004.42 1004.40 1002.75 1001.75 1000.82 1000.77 1000.98 1001.37 1001.54 1001.11 1003.78 1002.36
1011.14 1008.96 1006.46 1006.34 1006.91 1007.50 1007.33 1005.82 1004.00 1002.72 1002.41 1002.68 1002.79 1002.80 1002.69 1002.29 1001.95 1001.31 1000.72 999.94 999.53 999.88 999.78 1000.26 1000.34 1000.05 999.58 999.37 999.76 1000.16 1001.05 1002.09 1003.20 1003.85 1004.04 1003.14 1002.35 1000.59 1000.29 1000.57 1001.99 1002.14 1002.09 1002.74 1002.82
1010.78 1008.04 1006.01 1006.14 1006.98 1006.63 1006.03 1004.75 1003.64 1002.68 1002.59 1002.67 1002.69 1003.17 1003.21 1003.06 1002.66 1002.18 1001.43 1000.86 1000.41 1000.18 1000.43 1000.02 1000.89 1000.59 999.74 999.13 999.04 999.56 1000.31 1001.30 1002.97 1003.49 1003.24 1002.54 1001.46 1000.03 1000.05 1001.09 1001.53 1002.32 1002.08 1001.60 1001.60
1011.63 1007.99 1005.46 1005.68 1006.41 1006.06 1005.35 1004.49 1003.50 1003.28 1003.28 1003.56 1003.75 1003.80 1003.88 1004.17 1003.99 1003.02 1002.14 1001.46 1001.35 1001.39 1001.94 1001.88 1001.51 1001.52 1000.91 1000.03 999.37 999.72 1000.10 1000.52 1000.98 1001.67 1002.46 1002.33 1001.09 999.82 999.80 1000.93 1001.58 1002.12 1002.02 1001.52 1001.03
1011.90 1008.38 1006.48 1006.15 1006.06 1006.25 1006.09 1005.28 1004.73 1004.19 1003.90 1003.96 1004.27 1004.57 1004.91 1005.02 1004.64 1004.13 1003.25 1002.38 1002.51 1002.73 1002.84 1002.55 1002.80 1002.99 1002.60 1001.81 1001.30 1001.06 1000.86 1000.53 1001.42 1001.79 1001.33 1000.68 999.93 999.81 999.64 1000.55 1001.87 1002.01 1001.39 1000.93 1001.68
1011.47 1009.96 1009.56 1008.08 1007.48 1007.07 1006.81 1006.48 1005.96 1005.45 1005.29 1005.39 1005.56 1005.85 1006.13 1006.34 1005.90 1005.38 1004.58 1003.95 1003.69 1003.74 1004.07 1004.49 1004.34 1003.93 1003.27 1002.62 1001.50 1001.28 1001.10 1000.98 1000.65 1000.46 1000.89 999.85 999.26 999.11 999.14 1000.28 1001.70 1001.43 1001.49 1001.67 1001.85
1013.14 1012.34 1011.17 1010.06 1008.59 1007.83 1007.25 1006.93 1006.66 1006.53 1006.78 1006.81 1006.93 1006.85 1006.87 1007.05 1006.95 1006.95 1006.44 1006.17 1005.73 1005.12 1005.52 1005.63 1005.69 1005.09 1004.46 1003.67 1002.83 1001.35 1000.32 1000.37 1000.05 999.57 999.56 999.14 998.06 998.02 997.55 998.57 1000.40 1000.96 1001.50 1001.39 1001.30
1014.75 1013.78 1012.66 1010.82 1009.58 1008.74 1008.24 1007.95 1007.76 1007.71 1007.65 1007.55 1007.69 1007.76 1007.67 1007.33 1007.06 1007.06 1007.03 1006.86 1006.50 1006.37 1006.24 1006.40 1006.71 1006.54 1005.58 1005.30 1004.19 1002.40 1000.86 1000.20 1000.04 999.73 999.09 999.37 998.47 997.05 998.05 999.08 999.86 1000.39 1001.19 1002.31 1001.33
Wind_Speed
12 12 11 11 11 11 11 11 11 12 12 12 12 12 12 12 15 3 6 10 7 10 2 7 10 17 17 15 13 6 5 5 7 3 3 2 4 3 3 6 18 11 18 14 10
13 13 12 12 12 11 12 11 12 12 12 12 12 11 11 9 5 9 14 8 7 12 5 8 15 16 11 9 4 6 5 3 7 6 4 5 6 3 2 9 18 18 20 17 14
14 13 13 13 13 13 13 13 13 13 12 13 12 10 10 8 5 9 14 14 10 11 7 11 16 16 11 5 7 1 8 7 2 5 7 5 4 3 2 6 8 7 17 17 15
14 14 13 14 14 14 14 13 13 13 13 12 12 10 9 4 3 2 6 10 9 7 8 9 11 11 8 3 4 6 8 4 7 6 3 5 6 7 3 6 5 9 12 17 14
14 14 14 14 15 15 14 14 14 14 13 12 11 9 5 4 12 5 7 8 6 4 8 13 15 11 7 2 7 2 6 12 16 5 7 11 9 5 5 7 14 18 15 17 15
14 14 14 14 15 16 16 14 16 15 13 11 9 6 3 6 2 13 10 7 8 8 8 14 13 12 7 7 3 3 11 10 8 2 7 11 8 6 9 12 15 13 20 16 13
14 14 15 16 17 17 17 17 16 14 11 9 5 5 6 16 1 10 12 8 6 8 10 17 13 9 9 10 6 7 13 27 18 5 4 9 7 8 11 15 13 13 8 15 14
15 16 16 16 17 18 17 17 15 12 7 5 4 5 9 10 14 15 11 10 10 10 10 12 9 6 6 10 14 2 7 9 26 9 7 9 6 7 15 13 15 17 7 4 14
16 16 16 16 16 16 17 19 15 9 5 4 3 3 10 7 7 12 10 9 11 10 11 16 3 5 10 8 9 5 5 5 7 11 5 10 5 13 15 11 12 6 11 11 7
17 16 16 15 15 16 20 12 7 6 4 7 9 4 7 11 8 10 8 10 9 10 10 6 2 5 6 5 7 9 5 9 6 10 13 13 9 7 12 11 8 6 5 6 10
17 17 16 16 14 13 12 1 1 2 6 11 10 8 10 12 5 10 11 12 8 6 7 9 4 7 15 14 15 15 8 9 10 14 10 11 10 13 14 3 9 8 8 10 7
18 17 16 15 13 12 4 5 10 10 7 22 21 20 20 11 8 10 11 9 8 8 9 7 8 14 17 16 13 11 5 10 6 11 11 8 7 15 16 7 1 3 10 15 9
19 18 17 15 16 5 8 12 10 15 5 11 20 12 14 11 7 11 12 10 9 8 12 9 12 15 16 17 10 11 5 8 10 4 3 3 2 9 3 3 5 11 12 9 12
20 19 16 20 4 4 6 11 16 14 4 8 9 13 11 15 10 10 14 11 9 12 12 11 15 16 13 7 5 7 11 9 6 7 3 4 5 3 6 6 6 9 15 11 14
19 18 14 7 9 5 7 7 6 3 4 6 8 6 12 13 4 14 10 10 12 12 9 13 12 12 9 9 9 10 8 9 4 4 6 7 2 3 1 7 11 14 10 13 16
19 16 13 4 4 12 13 15 0 1 7 6 6 6 8 10 15 14 9 9 14 13 13 14 15 12 8 10 6 7 6 10 4 1 4 5 2 5 8 7 4 5 10 20 13
21 13 7 7 5 9 6 4 2 5 9 8 6 10 11 8 13 14 8 13 9 2 7 13 20 17 15 8 6 6 4 4 6 4 8 5 1 8 16 18 28 20 22 19 13
22 15 9 8 7 11 4 1 5 9 9 16 7 5 10 10 12 13 10 8 9 10 9 10 14 14 14 15 10 7 6 6 7 4 7 5 7 10 14 12 25 23 22 18 25
26 4 3 6 11 8 2 4 5 2 11 9 13 8 5 7 9 12 14 11 12 14 13 8 16 20 19 11 11 9 6 10 6 6 6 7 6 7 11 9 8 19 23 24 21
3 4 7 10 11 3 2 6 8 16 8 10 6 8 12 17 12 5 13 17 18 18 10 11 10 13 18 7 9 11 7 4 4 3 7 7 4 5 5 7 12 12 23 11 14
3 3 5 8 5 2 4 7 13 7 5 4 7 9 12 15 14 15 7 12 1 7 5 8 8 12 8 4 9 2 4 5 2 3 3 4 5 7 11 6 9 11 16 12 1
5 3 8 8 3 4 7 6 5 13 9 9 3 9 8 11 10 11 15 9 17 16 10 2 4 6 13 10 11 6 12 10 7 10 5 5 7 6 9 11 13 9 11 9 10
4 4 5 5 3 5 8 13 9 6 3 8 9 11 12 9 8 13 15 17 14 11 7 9 4 5 12 8 8 5 6 5 7 5 9 4 7 6 6 15 13 16 11 7 8
4 4 1 3 5 7 8 7 13 15 8 1 3 8 8 9 11 10 13 14 17 13 19 8 4 5 6 9 6 7 8 9 12 6 6 9 7 8 9 20 14 10 13 10 5
2 4 4 5 8 9 7 8 9 10 10 14 10 15 13 7 9 13 17 17 17 15 13 13 5 8 11 12 19 16 16 14 19 10 5 11 6 5 6 16 18 18 13 11 8
5 5 7 8 9 7 8 5 11 15 9 9 7 13 9 6 8 10 12 12 5 11 10 10 7 8 10 13 15 21 19 18 18 13 9 16 12 9 11 11 19 18 16 11 10
7 7 4 7 8 9 5 7 10 10 6 12 13 11 12 13 14 9 9 11 13 11 11 8 6 6 7 11 15 15 8 11 15 16 9 15 12 6 6 8 13 11 10 8 8
Wind_Direction
356 354 352 349 346 341 336 330 325 321 321 318 319 321 320 319 305 216 249 236 195 183 198 257 235 253 259 260 265 100 62 78 266 315 150 243 156 198 356 332 63 84 113 124 121
355 352 349 345 343 338 332 327 323 319 317 317 316 318 319 325 273 249 240 210 165 146 228 244 264 249 249 267 268 95 61 232 239 42 135 192 103 107 45 21 68 107 121 136 143
352 349 345 342 338 334 330 324 319 317 316 315 315 317 315 312 288 241 198 195 168 172 260 278 282 281 287 298 27 75 180 233 289 68 84 143 72 63 82 46 50 166 139 151 160
349 346 342 338 334 330 325 321 317 314 313 312 313 315 317 252 295 39 105 135 158 199 256 270 276 273 273 158 138 111 247 241 346 102 68 108 93 74 20 187 131 243 190 165 160
345 342 338 335 330 327 324 319 314 310 307 308 310 316 295 226 250 138 134 132 163 199 242 267 280 292 330 318 124 188 91 71 293 201 135 93 92 99 110 176 186 238 218 171 166
341 337 334 332 330 326 323 318 312 305 300 300 302 311 249 245 290 150 168 162 215 194 232 255 264 284 287 310 115 190 94 138 201 294 127 129 143 121 238 230 226 236 171 176 153
335 334 332 331 330 327 323 319 313 304 291 287 279 259 258 237 11 168 176 190 208 211 233 257 275 325 309 318 146 186 60 12 317 318 197 155 135 222 196 207 230 253 217 158 162
332 330 329 328 327 326 319 317 308 301 286 259 228 248 254 257 245 253 229 194 206 235 244 269 290 335 316 293 299 241 75 114 257 264 242 132 241 196 189 185 223 241 151 144 155
328 326 325 324 322 320 315 313 300 293 252 183 191 226 265 262 208 248 250 224 195 220 250 260 310 312 302 284 294 205 185 181 254 198 194 200 227 189 174 182 200 225 156 175 174
324 323 321 320 320 320 317 287 280 311 222 195 262 274 256 228 189 208 222 246 215 210 237 247 233 242 274 261 251 235 300 176 195 188 210 201 233 174 176 173 192 213 173 170 159
325 323 320 318 318 325 338 276 302 247 241 202 192 231 294 231 230 198 197 241 246 204 219 246 205 238 247 252 259 278 235 324 183 199 195 195 216 188 157 311 229 178 194 181 215
324 321 320 316 314 322 288 246 257 326 280 223 243 234 257 265 211 175 183 203 222 233 227 259 235 236 255 270 283 302 338 304 277 181 189 216 247 169 147 171 237 265 199 197 202
323 321 320 318 314 279 223 240 278 308 291 271 215 219 241 258 244 189 180 198 216 232 249 232 245 248 241 255 263 286 248 265 265 217 204 203 149 128 343 214 164 253 241 215 196
321 320 321 322 306 294 227 241 237 258 304 269 182 218 218 243 241 237 183 172 211 241 240 241 252 255 279 264 263 270 294 290 335 6 270 153 261 208 171 239 227 249 217 193 205
321 318 318 314 318 273 336 326 14 17 293 153 138 172 186 202 265 206 197 190 216 226 229 254 266 275 264 256 270 267 283 293 242 274 318 287 128 52 37 224 191 207 233 220 215
318 317 320 185 218 245 295 300 64 277 245 161 132 177 198 197 235 264 197 181 201 234 267 273 283 280 260 295 254 291 268 309 285 15 320 290 184 175 187 220 193 241 197 223 233
315 308 287 306 238 323 228 292 255 238 306 148 174 175 188 221 210 241 219 192 207 246 263 264 261 259 260 276 283 315 312 311 327 342 241 229 67 221 217 187 192 201 212 212 218
313 311 212 228 283 302 299 263 256 275 321 6 6 183 187 193 206 206 244 199 224 214 253 276 291 243 238 211 192 217 200 183 251 254 264 96 228 248 210 223 188 206 211 207 220
311 175 229 244 216 256 275 224 239 338 9 3 349 325 305 264 216 184 207 214 213 220 219 235 270 290 298 198 170 242 259 233 261 276 300 248 264 36 223 272 183 185 201 204 186
307 281 227 167 180 226 245 254 286 293 329 9 337 310 321 319 341 243 198 217 222 235 210 228 247 258 277 171 212 164 213 331 313 257 269 293 322 189 92 97 84 78 73 341 183
240 247 131 135 157 211 239 253 285 321 73 22 324 322 321 318 330 330 323 321 276 288 307 321 228 255 255 236 208 192 218 252 214 186 213 299 281 215 183 177 108 102 118 222 61
312 260 150 162 187 211 230 244 241 326 6 316 299 287 278 309 315 313 312 325 358 346 328 153 238 272 226 243 266 236 197 189 145 278 239 203 271 148 184 127 126 128 130 189 244
300 259 161 171 258 282 307 326 3 343 357 5 337 342 353 340 334 330 324 323 334 353 10 331 314 0 334 316 260 248 285 250 197 191 234 210 259 216 221 138 150 148 192 222 228
290 302 90 209 249 306 14 345 348 342 332 286 247 1 344 327 314 301 309 320 3 25 348 7 303 212 227 256 309 312 342 312 281 292 238 235 248 211 220 154 153 182 182 193 238
287 30 1 330 345 338 338 316 307 309 18 23 358 354 345 349 327 342 342 340 346 2 354 354 327 334 326 322 310 298 297 284 259 248 279 264 274 170 147 145 187 190 176 191 204
10 356 343 294 307 307 281 8 6 7 13 347 329 337 336 327 308 342 339 339 315 336 342 326 318 340 323 326 314 311 277 283 290 287 286 297 265 206 192 149 154 172 178 168 147
9 331 271 293 305 291 13 16 343 345 346 342 350 344 324 313 322 319 311 296 293 299 307 297 293 316 283 324 334 292 290 254 271 292 267 285 275 228 141 154 142 139 100 8 138